sat.trackr.live / text

‹ back to catalog

STARLINK-34584

NORAD 64697 · 2025-142B

PAYLOAD ACTIVE UNKNOWN

§ Identity

Operator
Country
US
Launch date
2025-06-28
Launch site
AFWTR
Launch vehicle
Mass (kg)
RCS (m²)

Purposes: comms

External: N2YO · Heavens-Above · Gunter

§ Orbital elements

Epoch: 2026-09-20T04:08:27.443904Z

Period
94.14 min
Inclination
70.0019°
Eccentricity
0.0003341
Mean motion
15.29591450 rev/d
Perigee alt
474.7 km
Apogee alt
479.3 km
Semi-major
6,855.2 km
B*
4.2742e-4
RAAN
181.6563°
Arg perigee
270.4664°
Mean anomaly
89.6128°
Rev number
6,867

§ Raw data

STARLINK-345841 64697U 25142B   26263.17253986  .00012183  00000+0  42742-3 0  99922 64697  70.0019 181.6563 0003341 270.4664  89.6128 15.29591450 68673

JSON: /api/v1/satellites/64697 · /tle

For live sub-satellite position, see the globe view (requires WebGL).

§ Visibility from observer

Set your observer location to see the next 7 days of passes ≥ 10°. The values pass through the URL so the page stays shareable.

No JS? Fill the form by hand. The geolocation button needs JavaScript.